Caldwell, NJ

4:17 AM EST on December 12, 2019 (GMT -0500)
Essex County

Weather History for KCDW - June, 2019

Change the Weather History Date:

Thursday, June 6, 2019

  Actual Average Record
Temperature  
Mean Temperature 78 °F -  
Max Temperature 86 °F 76 °F 92 °F (1966)
Min Temperature 69 °F 53 °F 43 °F (1964)
Cooling Degree Days 13    
Growing Degree Days 28 (Base 50)    
Moisture  
Dew Point 64 °F    
Average Humidity 67    
Maximum Humidity 91    
Minimum Humidity 40    
Precipitation  
Precipitation 0.00 in - - ()
Sea Level Pressure  
Sea Level Pressure 29.75 in    
Wind  
Wind Speed 6 mph (NW)    
Max Wind Speed 13 mph    
Max Gust Speed 18 mph    
Visibility 10 miles    
Events Rain    
Averages and records for this station are not official NWS values.
T = Trace of Precipitation, MM = Missing Value Source: NWS Daily Summary

Daily Weather History Graph

Daily Weather History Graph

Search for Another Location

Airport or City:

Astronomy

Jun. 06, 2019 Rise Set
Actual Time 5:25 AM EDT 8:25 PM EDT
Civil Twilight 4:52 AM EDT 8:59 PM EDT
Nautical Twilight 4:10 AM EDT 9:41 PM EDT
Astronomical Twilight 3:21 AM EDT 10:30 PM EDT
Moon 8:31 AM EDT (6/6) 11:41 PM EDT (6/6)
Length of Visible Light 16h 06m
Length of Day
14h 59m
Waxing Crescent, 13% of the Moon is Illuminated
Jun 6
Waxing Crescent
Jun 10
First Quarter
Jun 17
Full
Jun 25
Last Quarter
Jul 2
New

Hourly Weather History & Observations

Time (EDT) Temp. Heat Index Dew Point Humidity Pressure Visibility Wind Dir Wind Speed Gust Speed Precip Events Conditions
12:04 AM 75.0 °F - 70.0 °F 84% 29.73 in 8.0 mi Variable 3.5 mph - N/A   Mostly Cloudy
12:53 AM 75.0 °F - 70.0 °F 84% 29.73 in 9.0 mi Variable 5.8 mph - 0.00 in Rain Light Rain
1:03 AM 75.0 °F - 70.0 °F 84% 29.72 in 9.0 mi Variable 6.9 mph - 0.00 in Rain Light Rain
1:21 AM 73.9 °F - 69.1 °F 85% 29.71 in 10.0 mi Variable 6.9 mph - 0.00 in Rain Light Rain
1:53 AM 73.9 °F - 69.1 °F 85% 29.72 in 10.0 mi Variable 5.8 mph - 0.00 in   Mostly Cloudy
2:53 AM 73.0 °F - 69.1 °F 87% 29.70 in 10.0 mi Variable 4.6 mph - N/A   Mostly Cloudy
3:34 AM 73.0 °F - 69.1 °F 87% 29.67 in 10.0 mi SW 4.6 mph - N/A   Overcast
3:53 AM 73.0 °F - 69.1 °F 87% 29.68 in 10.0 mi SW 4.6 mph - N/A   Overcast
4:14 AM 73.0 °F - 69.1 °F 87% 29.67 in 10.0 mi Variable 3.5 mph - N/A   Mostly Cloudy
4:53 AM 72.0 °F - 69.1 °F 91% 29.68 in 9.0 mi Variable 3.5 mph - N/A   Mostly Cloudy
5:53 AM 72.0 °F - 69.1 °F 91% 29.69 in 6.0 mi Calm Calm - N/A   Scattered Clouds
6:53 AM 73.0 °F - 70.0 °F 90% 29.70 in 7.0 mi Variable 4.6 mph - N/A   Partly Cloudy
7:53 AM 75.0 °F - 68.0 °F 79% 29.71 in 9.0 mi Variable 3.5 mph - N/A   Partly Cloudy
8:53 AM 79.0 °F - 66.0 °F 64% 29.71 in 10.0 mi NW 8.1 mph - N/A   Mostly Cloudy
9:02 AM 79.0 °F - 66.0 °F 64% 29.70 in 10.0 mi WNW 12.7 mph - N/A   Mostly Cloudy
9:13 AM 79.0 °F - 66.0 °F 64% 29.70 in 10.0 mi NW 10.4 mph - N/A   Scattered Clouds
9:53 AM 80.1 °F 81.9 °F 64.9 °F 60% 29.72 in 10.0 mi NNW 9.2 mph - N/A   Mostly Cloudy
10:53 AM 81.0 °F 81.9 °F 62.1 °F 52% 29.74 in 10.0 mi NW 12.7 mph - N/A   Scattered Clouds
11:53 AM 82.0 °F 82.7 °F 61.0 °F 49% 29.76 in 10.0 mi NNW 9.2 mph 18.4 mph N/A   Clear
12:53 PM 82.9 °F 83.3 °F 61.0 °F 47% 29.76 in 10.0 mi NW 10.4 mph - N/A   Scattered Clouds
1:53 PM 84.0 °F 84.0 °F 60.1 °F 44% 29.77 in 10.0 mi NW 10.4 mph 18.4 mph N/A   Partly Cloudy
2:53 PM 86.0 °F 86.1 °F 61.0 °F 43% 29.76 in 10.0 mi NW 8.1 mph 17.3 mph N/A   Mostly Cloudy
3:53 PM 86.0 °F 85.4 °F 59.0 °F 40% 29.77 in 10.0 mi Variable 6.9 mph - N/A   Mostly Cloudy
4:53 PM 84.9 °F 84.2 °F 57.9 °F 40% 29.78 in 10.0 mi WNW 9.2 mph - N/A   Mostly Cloudy
5:53 PM 84.0 °F 83.5 °F 57.9 °F 41% 29.78 in 10.0 mi NW 10.4 mph - N/A   Clear
6:53 PM 81.0 °F 81.0 °F 57.0 °F 44% 29.81 in 10.0 mi NNW 8.1 mph - N/A   Partly Cloudy
7:53 PM 80.1 °F 80.4 °F 57.0 °F 45% 29.82 in 10.0 mi NW 5.8 mph - N/A   Overcast
8:53 PM 77.0 °F - 57.9 °F 52% 29.84 in 10.0 mi Calm Calm - N/A   Overcast
9:53 PM 72.0 °F - 59.0 °F 64% 29.87 in 10.0 mi Calm Calm - N/A   Clear
10:53 PM 70.0 °F - 60.1 °F 71% 29.88 in 10.0 mi Calm Calm - N/A   Clear
11:53 PM 69.1 °F - 61.0 °F 75% 29.88 in 10.0 mi Calm Calm - N/A   Clear